Wind_Speed
22 22 23 23 23 23 24 24 23 23 22 21 19 18 18 17 17 17 19 20 22 24 25 27 29 32 34 36 39 40 42 43 43 43 44 44 44 43 42 42 41 41 41
21 22 22 23 23 23 23 24 24 24 24 23 21 20 19 19 19 19 20 21 22 23 25 26 27 30 32 35 37 39 41 42 42 42 44 45 45 44 43 43 42 42 41
21 21 22 23 23 23 24 24 24 24 25 24 23 21 21 20 20 20 20 20 21 22 23 25 26 28 30 32 35 37 39 41 42 42 43 45 45 45 44 43 43 42 43
20 21 21 22 23 23 24 24 24 25 25 25 25 24 23 22 21 20 20 19 19 19 21 22 24 26 28 30 32 35 37 39 41 41 42 43 44 44 45 44 44 43 42
20 21 21 22 22 23 24 24 25 25 26 26 26 26 25 25 24 22 21 19 17 17 18 20 22 23 25 27 29 32 34 37 39 40 41 43 44 44 44 44 45 44 44
21 21 21 22 22 23 23 24 25 25 26 26 27 27 27 27 26 24 22 20 17 16 16 17 19 20 22 24 26 29 32 34 35 37 39 40 41 42 43 44 44 44 44
21 21 22 22 22 23 23 24 24 25 26 26 26 27 28 28 27 25 23 21 19 17 15 14 15 17 19 20 22 25 27 30 32 34 36 37 38 39 41 43 43 43 42
22 22 22 22 23 23 23 24 24 24 25 26 26 26 27 27 27 26 25 23 21 19 16 14 12 13 14 16 18 20 23 25 27 30 33 35 36 37 38 40 42 43 42
23 23 23 23 23 24 24 24 24 24 25 25 26 26 26 26 26 26 25 24 22 20 17 14 12 11 11 12 14 16 19 22 24 25 28 32 35 36 37 38 40 41 41
24 24 24 25 25 25 25 25 25 25 25 25 25 26 26 26 25 25 25 23 22 20 18 15 13 11 9 9 10 13 15 18 20 22 24 28 32 34 36 37 38 39 40
26 26 26 26 25 25 25 25 25 25 25 25 25 25 25 25 25 25 24 23 22 20 18 16 14 12 10 8 8 9 11 14 17 19 21 24 27 30 32 34 36 37 37
28 27 27 27 27 26 26 26 26 26 26 25 25 25 24 24 24 24 23 23 22 20 19 17 15 13 11 9 7 7 8 10 13 16 19 21 24 26 28 30 33 35 36
29 29 29 28 28 28 28 27 27 26 26 25 25 25 24 24 24 23 23 22 21 20 19 18 16 14 13 11 9 8 7 9 11 13 16 19 21 23 25 27 30 32 33
31 31 30 30 29 29 28 28 28 27 27 26 25 25 24 24 23 23 22 22 21 20 19 18 17 15 13 12 10 9 8 8 9 10 12 15 18 20 22 24 27 30 31
32 32 32 31 30 29 29 29 29 28 28 27 26 26 25 24 24 23 22 21 21 20 19 19 17 16 14 13 11 10 9 9 10 10 12 14 16 18 19 21 24 27 30
34 33 32 31 30 29 29 28 29 29 29 29 28 28 27 26 25 24 23 22 21 20 20 19 18 17 15 14 12 12 11 11 11 11 12 13 14 16 18 19 21 24 27
34 33 32 31 30 30 29 28 28 28 29 29 29 29 28 28 27 26 24 23 22 21 20 19 19 18 17 15 14 13 13 12 12 12 12 12 13 14 15 17 19 21 23
33 32 31 30 30 29 29 29 29 28 28 29 29 30 30 29 29 28 27 26 24 23 22 21 20 19 18 17 16 15 14 14 13 13 13 13 13 14 13 14 16 18 21
32 31 30 30 29 29 29 29 30 30 30 29 30 30 30 30 30 30 29 28 27 26 24 23 22 21 20 19 18 17 16 16 15 14 14 14 14 14 14 14 15 17 19
33 32 31 30 30 30 30 30 30 31 31 31 31 31 31 31 31 32 32 31 31 30 28 27 25 24 23 22 21 20 19 18 17 16 15 15 14 14 15 15 15 16 19
34 34 33 32 31 31 32 32 32 32 32 32 33 33 33 33 33 33 33 33 33 33 33 32 30 29 27 26 25 23 22 21 20 19 18 17 16 16 16 16 17 18 19
35 34 34 33 33 33 33 33 33 33 33 34 34 35 35 36 36 36 36 36 36 36 36 35 35 34 32 31 30 28 26 25 24 23 22 21 20 19 19 19 19 18 19
36 35 35 35 35 35 35 35 35 35 36 36 36 37 37 38 39 39 39 39 40 40 40 39 39 38 38 37 36 34 32 31 30 28 27 26 24 23 23 23 23 23 23
36 36 36 36 37 37 37 37 38 38 38 39 40 40 41 42 42 42 43 43 43 44 44 45 44 44 43 42 42 41 39 37 36 34 33 31 30 29 28 27 27 26 27
37 37 38 39 39 40 40 41 41 42 42 43 44 44 45 46 46 46 47 47 47 47 48 49 49 49 49 48 48 47 46 44 43 41 39 38 36 34 33 32 31 31 30
39 39 40 41 42 43 43 44 44 45 46 47 48 49 50 50 51 51 51 51 51 51 52 52 53 54 54 54 54 53 52 51 49 48 46 44 42 40 38 37 36 35 35
Wind_Direction
14 14 14 13 12 11 10 9 7 5 2 358 353 346 338 328 315 303 293 285 278 271 265 259 255 252 248 245 243 242 240 239 239 238 237 237 238 238 239 238 238 240 242
9 9 9 8 8 7 7 7 6 5 3 360 355 349 343 334 325 314 302 292 284 277 268 261 256 253 250 247 244 242 241 240 239 238 237 237 238 238 238 237 238 239 241
4 4 5 5 4 4 4 4 4 4 2 1 358 353 347 340 332 322 312 302 291 282 274 265 259 255 252 249 246 243 241 240 239 238 238 237 238 238 238 238 238 240 241
357 357 359 0 1 2 2 2 1 1 1 1 360 357 353 348 342 333 322 312 301 289 279 271 263 258 254 250 247 243 242 240 238 238 238 237 238 239 239 239 240 241 240
349 350 352 353 355 357 359 359 359 359 359 360 359 357 356 353 350 344 337 327 314 301 288 277 268 262 257 253 250 246 243 240 239 238 238 238 238 239 240 240 241 241 240
343 345 347 349 351 352 354 355 357 358 359 359 359 358 357 356 354 351 348 342 332 319 303 287 278 270 263 258 252 247 244 241 240 238 238 239 239 240 240 241 241 241 241
340 341 342 344 347 349 350 352 353 355 356 357 358 359 359 359 359 357 355 351 345 335 321 304 289 279 270 262 256 249 244 242 240 238 237 238 239 239 239 239 240 240 241
336 337 339 341 342 344 346 348 350 351 353 355 356 357 359 0 1 1 360 358 354 349 339 326 309 292 279 268 259 250 245 242 240 238 237 236 236 237 238 237 238 240 240
333 334 335 337 338 340 341 343 346 348 350 352 354 355 357 359 1 2 1 0 0 358 353 346 332 314 295 278 262 253 248 244 241 240 239 238 236 236 237 238 237 237 237
330 330 331 333 334 336 337 339 341 343 346 348 350 352 355 357 359 0 2 2 2 3 2 358 351 339 320 298 274 260 253 247 245 243 240 238 236 235 236 237 237 237 237
326 326 328 329 330 331 333 334 336 338 341 343 345 348 350 353 355 357 359 1 2 3 4 3 359 354 346 327 301 277 263 254 249 246 244 241 238 237 238 237 236 237 237
322 322 322 323 324 325 327 328 330 332 335 337 340 342 345 347 351 353 356 357 359 360 1 1 360 357 353 344 328 301 279 266 258 253 247 244 243 242 240 239 236 236 237
317 317 317 317 317 318 320 321 323 325 328 330 333 336 338 341 344 347 350 352 353 354 356 356 355 354 351 346 338 324 303 283 272 263 253 249 247 246 243 240 237 235 236
314 314 313 313 313 312 313 315 317 319 321 323 326 329 332 334 337 340 343 345 347 348 349 350 350 348 344 339 334 326 312 294 284 273 260 254 252 249 244 240 238 235 234
311 311 311 311 311 310 310 311 312 314 315 317 319 321 324 326 329 331 334 336 339 341 341 342 343 343 341 335 328 321 316 305 292 282 273 265 258 253 246 242 239 236 233
309 309 308 308 308 308 308 309 310 311 312 313 314 315 316 318 321 323 325 327 329 331 333 334 334 334 334 330 324 318 314 309 300 291 283 275 264 256 249 243 239 236 233
308 307 306 306 306 306 306 307 307 307 308 309 309 310 310 311 313 314 316 317 319 320 322 325 326 326 325 322 319 314 310 306 301 294 287 280 274 261 252 245 241 236 232
306 306 305 304 304 304 305 306 306 306 306 305 305 306 306 307 308 308 308 308 309 310 311 312 314 316 316 314 311 309 305 302 299 294 287 283 275 265 258 250 242 236 233
303 304 304 303 303 303 304 304 305 306 306 306 305 304 304 304 304 303 303 302 301 302 302 302 302 303 304 304 302 300 299 296 293 291 286 280 275 267 260 253 245 237 234
300 301 302 301 301 302 303 303 304 304 304 304 304 303 303 302 301 300 300 299 298 296 295 294 293 293 293 293 293 292 290 288 286 285 281 275 271 264 257 254 247 238 232
297 298 299 299 299 300 301 302 302 303 303 303 303 303 303 302 300 299 297 296 295 293 292 290 288 286 285 284 283 282 281 279 278 276 273 268 264 259 254 250 246 242 236
294 295 296 297 298 299 300 300 301 301 302 302 302 302 302 302 300 299 297 295 293 291 288 287 284 282 280 278 276 275 273 271 270 268 267 264 259 255 250 247 244 241 237
292 293 294 295 296 298 299 299 299 300 300 301 301 301 300 300 299 298 296 295 293 290 288 285 281 278 276 273 271 270 268 265 263 261 260 258 256 252 249 246 243 240 238
290 291 293 295 296 297 298 299 299 299 299 300 300 300 299 298 297 296 295 293 291 289 286 283 280 277 273 271 268 265 263 261 258 257 255 254 252 250 247 245 242 241 239
289 291 293 295 296 297 298 299 299 299 299 300 300 299 299 298 297 296 294 293 290 287 285 282 279 276 273 269 266 262 260 258 256 254 252 250 248 247 246 244 242 240 239
290 292 294 295 296 297 298 298 299 300 300 300 300 300 299 299 298 296 294 293 290 288 285 281 278 275 272 268 265 261 258 255 254 252 249 247 246 244 243 242 242 240 239
Height
5814 5810 5806 5802 5798 5794 5789 5785 5781 5776 5772 5768 5764 5760 5757 5754 5751 5749 5747 5745 5744 5744 5744 5745 5747 5749 5752 5755 5759 5763 5768 5773 5779 5784 5789 5794 5798 5804 5809 5813 5818 5822 5826
5815 5811 5807 5803 5798 5794 5790 5785 5781 5776 5771 5767 5762 5758 5754 5751 5747 5744 5741 5739 5737 5736 5736 5737 5738 5740 5742 5745 5749 5753 5757 5762 5767 5773 5778 5783 5788 5793 5798 5803 5808 5812 5817
5816 5812 5807 5803 5799 5794 5790 5785 5781 5776 5771 5766 5761 5756 5752 5748 5743 5740 5736 5733 5731 5729 5728 5729 5730 5731 5733 5736 5739 5743 5747 5751 5756 5762 5767 5772 5777 5783 5788 5793 5798 5803 5807
5815 5811 5807 5803 5799 5794 5789 5785 5780 5775 5770 5765 5760 5755 5750 5745 5740 5735 5731 5728 5725 5723 5722 5721 5722 5723 5725 5727 5730 5733 5737 5741 5746 5751 5756 5761 5766 5771 5777 5783 5788 5793 5797
5814 5811 5806 5802 5798 5793 5789 5784 5779 5774 5769 5764 5759 5754 5748 5743 5737 5732 5727 5723 5719 5717 5716 5715 5715 5716 5717 5718 5721 5724 5727 5731 5735 5740 5746 5751 5756 5761 5767 5772 5777 5782 5786
5813 5809 5805 5801 5797 5792 5788 5783 5779 5774 5769 5763 5758 5753 5747 5741 5735 5730 5724 5720 5716 5712 5710 5709 5709 5709 5710 5711 5713 5715 5718 5722 5726 5731 5736 5741 5746 5751 5756 5761 5767 5771 5777
5811 5807 5803 5799 5795 5791 5787 5782 5778 5773 5768 5763 5757 5752 5746 5740 5734 5728 5723 5718 5714 5710 5707 5704 5703 5703 5703 5704 5705 5707 5710 5713 5717 5722 5727 5731 5736 5742 5746 5751 5755 5760 5766
5809 5805 5801 5797 5794 5789 5785 5781 5777 5772 5767 5762 5757 5752 5746 5740 5734 5728 5723 5718 5713 5708 5704 5702 5700 5699 5698 5698 5699 5701 5703 5706 5710 5714 5718 5722 5727 5731 5736 5741 5746 5751 5755
5806 5803 5799 5795 5791 5787 5783 5779 5775 5771 5766 5761 5756 5751 5746 5740 5735 5729 5724 5718 5713 5708 5704 5700 5698 5696 5695 5694 5695 5697 5698 5701 5703 5707 5710 5714 5718 5722 5726 5731 5735 5740 5745
5803 5800 5796 5793 5789 5785 5781 5777 5773 5769 5765 5760 5755 5750 5745 5740 5735 5730 5725 5719 5714 5709 5705 5701 5698 5695 5693 5692 5692 5693 5694 5696 5698 5701 5704 5707 5710 5714 5718 5722 5726 5731 5735
5800 5796 5793 5789 5786 5782 5778 5774 5770 5767 5763 5758 5754 5749 5745 5740 5735 5730 5725 5720 5715 5711 5706 5702 5699 5696 5693 5691 5690 5690 5691 5692 5694 5696 5698 5700 5703 5706 5709 5713 5717 5722 5726
5796 5792 5789 5785 5782 5779 5775 5771 5768 5764 5760 5756 5752 5748 5744 5739 5734 5730 5725 5720 5716 5712 5708 5704 5700 5697 5694 5692 5690 5689 5689 5690 5690 5691 5693 5695 5697 5700 5702 5705 5709 5713 5717
5791 5788 5784 5781 5778 5774 5771 5767 5764 5760 5757 5753 5750 5746 5742 5738 5733 5729 5725 5720 5716 5712 5708 5704 5701 5697 5694 5692 5690 5689 5688 5688 5687 5688 5689 5690 5692 5694 5696 5698 5701 5705 5709
5785 5782 5779 5776 5772 5769 5766 5763 5759 5756 5753 5750 5746 5743 5739 5735 5732 5728 5724 5720 5716 5712 5708 5704 5701 5697 5694 5692 5690 5688 5687 5686 5685 5685 5685 5686 5687 5688 5690 5692 5694 5697 5701
5779 5775 5772 5769 5766 5763 5760 5757 5754 5751 5747 5745 5742 5738 5735 5732 5729 5725 5722 5718 5715 5711 5707 5704 5700 5697 5694 5691 5689 5687 5686 5684 5683 5683 5683 5682 5683 5684 5684 5686 5688 5691 5694
5772 5768 5765 5762 5759 5756 5753 5751 5748 5745 5742 5738 5736 5733 5730 5727 5724 5721 5718 5715 5712 5709 5706 5702 5699 5696 5693 5690 5688 5686 5684 5683 5681 5680 5680 5679 5679 5679 5680 5681 5682 5685 5688
5764 5761 5758 5754 5752 5749 5746 5744 5742 5739 5736 5732 5729 5727 5724 5722 5719 5717 5714 5711 5709 5706 5703 5700 5697 5694 5691 5689 5686 5684 5682 5680 5679 5678 5677 5676 5676 5676 5676 5677 5678 5680 5682
5756 5753 5750 5747 5744 5742 5739 5736 5734 5732 5730 5727 5723 5720 5717 5715 5713 5711 5709 5706 5704 5701 5699 5696 5694 5691 5688 5686 5684 5681 5679 5678 5676 5675 5674 5673 5673 5673 5673 5673 5675 5676 5678
5748 5745 5742 5739 5737 5734 5732 5729 5726 5724 5722 5719 5717 5714 5711 5709 5706 5704 5702 5700 5697 5696 5694 5691 5689 5687 5684 5682 5680 5678 5676 5674 5673 5672 5671 5670 5670 5670 5670 5670 5671 5672 5674
5740 5737 5735 5732 5729 5727 5724 5721 5719 5716 5714 5711 5708 5706 5703 5701 5699 5696 5693 5691 5690 5688 5686 5685 5683 5681 5679 5677 5675 5674 5672 5670 5669 5668 5667 5666 5666 5666 5666 5667 5668 5669 5671
5731 5728 5726 5723 5721 5718 5716 5713 5710 5708 5705 5702 5700 5697 5694 5692 5690 5688 5686 5683 5681 5679 5678 5676 5675 5674 5672 5671 5669 5668 5666 5665 5664 5663 5663 5662 5662 5662 5662 5663 5664 5665 5666
5721 5719 5717 5714 5712 5709 5707 5704 5701 5699 5696 5694 5691 5688 5685 5682 5680 5678 5675 5673 5671 5670 5668 5667 5666 5665 5663 5662 5661 5660 5659 5658 5658 5657 5657 5656 5657 5657 5657 5658 5659 5660 5661
5711 5709 5707 5704 5702 5699 5697 5694 5692 5689 5686 5683 5681 5678 5675 5672 5669 5667 5664 5662 5660 5658 5656 5655 5654 5653 5652 5651 5651 5650 5650 5649 5649 5648 5648 5649 5649 5650 5651 5652 5653 5654 5656
5700 5698 5696 5694 5691 5689 5686 5683 5681 5678 5675 5672 5669 5666 5663 5660 5657 5654 5652 5649 5647 5644 5642 5641 5639 5639 5638 5638 5637 5637 5637 5637 5637 5638 5638 5639 5640 5641 5642 5644 5645 5646 5648
5689 5687 5685 5683 5680 5677 5674 5671 5668 5665 5662 5659 5656 5653 5649 5646 5643 5640 5637 5634 5632 5629 5627 5625 5623 5622 5621 5621 5621 5621 5622 5623 5624 5625 5625 5627 5628 5630 5632 5633 5635 5637 5639
5677 5675 5673 5670 5668 5665 5662 5658 5655 5652 5648 5645 5641 5637 5634 5630 5627 5623 5620 5617 5614 5612 5609 5606 5604 5603 5602 5602 5602 5603 5604 5606 5607 5609 5610 5612 5615 5617 5619 5621 5624 5626 5629